Pagrindinis puslapis
METAR-TAF:

METAR-TAF

Oro uostai :

Los Alamos, Naujoji Meksika, Jungtinės Amerikos Valstijos

platuma: 35-53N, ilguma: 106-17W, Aukštis: 2179 m

Dabartinis oras

Ataskaita buvo paskelbta 15 minutes, ne 05:15 UTC
Vėjas 11 kt iš Pietų su gūsio iki 15 kt
Temperatūra 18°C
Drėgmė 52%
Slėgis 1026 hPa
Matomumas: 16.1 km
Giedras dangus

METAR: KLAM 220515Z AUTO 19011G15KT 10SM CLR 18/08 A3031 RMK AO2 T01760077

Laikas: 23:30 (05:30 UTC)


TAF: trūkstamas

Orai ataskaitas ir orų prognozės (METAR, TAF).

turimą stotys yra geltonos ir raudonos taškus žemėlapyje.

Perkelti pele per norėdami pamatyti stoties vardą.

Tada spustelėkite, norėdami matyti oro stebėjimo ir prognozės.

Norėdami pakeisti žemėlapį: spustelėkite ant žalios mygtukų su juodo kryžiaus žemyn,; žalią mygtuką su brūkšneliu, jei norite nutolinti; arba žalių rodyklių gretimoms žemėlapius.


METAR-TAF: